Weather History for Fort Myers, FL

Change the Weather History Date:

Sunday, April 7, 2013

  Actual Average Record
Temperature  
Mean Temperature 73 °F 73 °F  
Max Temperature 84 °F 83 °F 89 °F (1947)
Min Temperature 61 °F 62 °F 41 °F (1950)
Degree Days  
Heating Degree Days 0 0  
Month to date heating degree days 0 0  
Since 1 July heating degree days 201 284  
Cooling Degree Days 8 8  
Month to date cooling degree days 57 52  
Year to date cooling degree days 439 413  
Growing Degree Days 22 (Base 50)    
Moisture  
Dew Point 59 °F    
Average Humidity 65    
Maximum Humidity 97    
Minimum Humidity 37    
Precipitation  
Precipitation 0.00 in 0.07 in 2.31 in (1941)
Month to date precipitation 1.26 0.57  
Year to date precipitation 4.52 7.54  
Sea Level Pressure  
Sea Level Pressure 30.08 in    
Wind  
Wind Speed 7 mph (East)    
Max Wind Speed 16 mph    
Max Gust Speed 22 mph    
Visibility 10 miles    
Events      
T = Trace of Precipitation, MM = Missing Value Source: NWS Daily Summary

Daily Weather History Graph

Daily Weather History Graph

Search for Another Location

Airport:

Trip Planner

Search our weather history database for the weather conditions in past years. The results will help you decide how hot, cold, wet, or windy it might be!

Date:

Astronomy

Apr. 07, 2013 Rise Set
Actual Time 7:11 AM EDT 7:47 PM EDT
Civil Twilight 6:48 AM EDT 8:11 PM EDT
Nautical Twilight 6:20 AM EDT 8:38 PM EDT
Astronomical Twilight 5:52 AM EDT 9:06 PM EDT
Moon 5:14 AM EDT (4/7) 5:29 PM EDT (4/7)
Length of Visible Light 13h 22m
Length of Day
12h 35m
Waning Crescent, 8% of the Moon is Illuminated
Apr 7
Waning Crescent
Apr 10
New
Apr 18
First Quarter
Apr 25
Full
May 2
Last Quarter

Hourly Weather History & Observations

Time (EDT) Temp. Heat Index Dew Point Humidity Pressure Visibility Wind Dir Wind Speed Gust Speed Precip Events Conditions
12:53 AM 64.9 °F - 57.0 °F 75% 30.10 in 10.0 mi Calm Calm - N/A   Clear
1:53 AM 64.0 °F - 57.0 °F 78% 30.09 in 10.0 mi Calm Calm - N/A   Clear
2:53 AM 62.1 °F - 57.0 °F 84% 30.06 in 10.0 mi East 3.5 mph - N/A   Clear
3:53 AM 62.1 °F - 57.9 °F 86% 30.04 in 10.0 mi ENE 4.6 mph - N/A   Partly Cloudy
4:53 AM 61.0 °F - 57.9 °F 90% 30.05 in 10.0 mi ENE 3.5 mph - N/A   Partly Cloudy
5:53 AM 61.0 °F - 59.0 °F 93% 30.06 in 10.0 mi ENE 5.8 mph - N/A   Clear
6:53 AM 61.0 °F - 59.0 °F 93% 30.07 in 10.0 mi East 4.6 mph - N/A   Clear
7:53 AM 62.1 °F - 60.1 °F 93% 30.10 in 10.0 mi NE 5.8 mph - N/A   Clear
8:53 AM 66.9 °F - 61.0 °F 81% 30.12 in 10.0 mi NE 9.2 mph - N/A   Clear
9:53 AM 73.9 °F - 60.1 °F 62% 30.13 in 10.0 mi East 10.4 mph - N/A   Clear
10:53 AM 77.0 °F - 60.1 °F 56% 30.14 in 10.0 mi East 11.5 mph - N/A   Clear
11:53 AM 79.0 °F - 60.1 °F 52% 30.13 in 10.0 mi East 12.7 mph 21.9 mph N/A   Partly Cloudy
12:53 PM 81.0 °F 81.3 °F 59.0 °F 47% 30.12 in 10.0 mi East 10.4 mph 16.1 mph N/A   Partly Cloudy
1:53 PM 82.9 °F 82.1 °F 55.9 °F 39% 30.10 in 10.0 mi East 6.9 mph - N/A   Mostly Cloudy
2:53 PM 82.9 °F 82.1 °F 55.9 °F 39% 30.08 in 10.0 mi Variable 4.6 mph - N/A   Mostly Cloudy
3:53 PM 82.0 °F 81.3 °F 54.0 °F 38% 30.06 in 10.0 mi East 9.2 mph - N/A   Mostly Cloudy
4:53 PM 82.0 °F 81.4 °F 55.0 °F 39% 30.05 in 10.0 mi East 9.2 mph - N/A   Mostly Cloudy
5:53 PM 81.0 °F 81.3 °F 59.0 °F 47% 30.04 in 10.0 mi East 9.2 mph - N/A   Overcast
6:53 PM 80.1 °F 81.1 °F 61.0 °F 52% 30.04 in 10.0 mi East 9.2 mph - N/A   Overcast
7:53 PM 77.0 °F - 61.0 °F 58% 30.06 in 10.0 mi ESE 11.5 mph - N/A   Overcast
8:53 PM 75.0 °F - 61.0 °F 62% 30.08 in 10.0 mi ESE 9.2 mph - N/A   Overcast
9:53 PM 73.9 °F - 61.0 °F 64% 30.10 in 10.0 mi ESE 8.1 mph - N/A   Overcast
10:53 PM 72.0 °F - 61.0 °F 68% 30.11 in 10.0 mi ESE 6.9 mph - N/A   Overcast
11:53 PM 70.0 °F - 60.1 °F 71% 30.11 in 10.0 mi ESE 6.9 mph - N/A   Overcast